Content
SEND FEEDBACK

Daily
Averages
Monthly
Summary
Turkey

BIRECIK, TURKEY


Home > Middle East > Turkey
Elevation: 1138 feet     Latitude: 37 00N     Longitude: 038 00E

WEATHER
 
SELECT A DAY
Number of Records: 206,776;   Date Range: 7/1/96 - 7/20/14
 
SHARE

PRINT THIS DATA

[ ← Previous Day ]
WEATHER ALMANAC - JANUARY 31, 2013
[ Next Day → ]
[ °C ]   °F
Weather ElementAverageHighLow
Temperature40.3 °F46.4 °F (3:20 pm)35.6 °F (8:20 pm)
Dewpoint37.6 °F41 °F (10:50 am)33.8 °F (7:50 pm)
Humidity89.8 %100 % (10:50 am)76 % (3:20 pm)
Barometer29.66 in29.74 in (8:00 pm)29.62 in (5:20 am)
Wind Speed7.8 mph16.1 mph (12:50 am)
Weather ElementAverage
Visibility4 mi
Wind DirectionESE (128 °)

Weather ElementTotal
Precipitation---
Heating Degree Days24 (Base 65)
Averaged from 51 records on January 31, 2013
WEATHER CONDITIONS BREAKOUT
WIND DIRECTION BREAKOUT
WEATHER BY HOUR - JANUARY 31, 2013
[ °C ]   °F
Local TimeTemperatureDewpointHumidityBarometerVisibilityWind DirectionWind SpeedGust SpeedPrecipitationEventsConditions
12:50 AM39.2 °F35.6 °F87 %29.68 in2.5 miNorth (10°)16.1 mphRainLight Rain
1:20 AM39.2 °F37.4 °F93 %29.68 in2.5 miNorth (10°)13.8 mphRainLight Rain
1:50 AM39.2 °F37.4 °F93 %29.68 in2.5 miNorth (10°)12.7 mphRainLight Rain
2:00 AM39.0 °F37.0 °F91 %29.71 in2.0 miNorth (10°)12.7 mphRainLight Rain
2:20 AM39.2 °F37.4 °F93 %29.65 in2.5 miNorth (10°)10.4 mphRainLight Rain
2:50 AM39.2 °F37.4 °F93 %29.65 in2.5 miNorth (360°)9.2 mphMostly Cloudy
3:20 AM41.0 °F39.2 °F93 %29.65 in2.5 miNorth (360°)8.1 mphMostly Cloudy
3:50 AM41.0 °F39.2 °F93 %29.65 in2.5 miNorth (360°)5.8 mphRainLight Rain
4:20 AM41.0 °F39.2 °F93 %29.65 in2.5 miNorth (10°)9.2 mphRainLight Rain
4:50 AM41.0 °F39.2 °F93 %29.65 in2.5 miNNE (20°)8.1 mphRainLight Rain
5:20 AM39.2 °F37.4 °F93 %29.62 in2.5 miNNE (20°)13.8 mphRainLight Rain
5:50 AM39.2 °F37.4 °F93 %29.65 in2.5 miNNE (20°)15.0 mphMostly Cloudy
6:20 AM39.2 °F37.4 °F93 %29.65 in2.5 miNNE (20°)12.7 mphMostly Cloudy
6:50 AM39.2 °F37.4 °F93 %29.65 in2.5 miNorth (10°)11.5 mphMostly Cloudy
7:20 AM39.2 °F37.4 °F93 %29.65 in2.5 miNorth (10°)11.5 mphMostly Cloudy
7:50 AM39.2 °F37.4 °F93 %29.65 in2.5 miNorth (10°)13.8 mphMostly Cloudy
8:00 AM39.0 °F37.0 °F90 %29.70 in2.0 miNorth (10°)13.8 mphMist
8:20 AM39.2 °F37.4 °F93 %29.65 in2.5 miNNE (30°)11.5 mphMostly Cloudy
8:50 AM39.2 °F37.4 °F93 %29.65 in2.5 miNNE (20°)10.4 mphMostly Cloudy
9:20 AM41.0 °F39.2 °F93 %29.65 in2.5 miNNE (20°)9.2 mphMostly Cloudy
9:50 AM41.0 °F39.2 °F93 %29.68 in2.5 miNNE (30°)9.2 mphMostly Cloudy
10:20 AM41.0 °F39.2 °F93 %29.68 in2.5 miNNE (30°)9.2 mphMostly Cloudy
10:50 AM41.0 °F41.0 °F100 %29.65 in2.5 miNE (40°)8.1 mphMostly Cloudy
11:20 AM41.0 °F39.2 °F93 %29.65 in2.5 miNE (40°)5.8 mphMostly Cloudy
11:50 AM42.8 °F39.2 °F87 %29.65 in2.5 miNNE (20°)4.6 mphMostly Cloudy
12:20 PM42.8 °F39.2 °F87 %29.65 in2.5 miNE (40°)5.8 mphMostly Cloudy
12:50 PM42.8 °F41.0 °F93 %29.65 in6.2 miNNE (30°)3.5 mphMostly Cloudy
1:20 PM42.8 °F41.0 °F93 %29.62 in6.2 miNNE (30°)5.8 mphMostly Cloudy
1:50 PM42.8 °F41.0 °F93 %29.62 in6.2 miNNE (20°)5.8 mphMostly Cloudy
2:00 PM43.0 °F40.0 °F85 %29.68 in6.0 miNNE (20°)5.8 mphMostly Cloudy
2:20 PM44.6 °F39.2 °F81 %29.62 in6.2 miNorth (10°)6.9 mphMostly Cloudy
2:50 PM44.6 °F39.2 °F81 %29.65 in6.2 miNorth (350°)5.8 mphMostly Cloudy
3:20 PM46.4 °F39.2 °F76 %29.65 in6.2 miNNW (340°)8.1 mphMostly Cloudy
3:50 PM44.6 °F39.2 °F81 %29.65 in6.2 miNNW (340°)9.2 mphMostly Cloudy
4:20 PM44.6 °F39.2 °F81 %29.65 in6.2 miNNW (340°)10.4 mphMostly Cloudy
4:50 PM42.8 °F37.4 °F81 %29.65 in6.2 miNNW (340°)10.4 mphMostly Cloudy
5:20 PM42.8 °F37.4 °F81 %29.65 in6.2 miNNW (330°)10.4 mphMostly Cloudy
5:50 PM42.8 °F37.4 °F81 %29.68 in6.2 miNNW (330°)8.1 mphMostly Cloudy
6:20 PM41.0 °F35.6 °F81 %29.68 in6.2 miNNW (330°)6.9 mphMostly Cloudy
6:50 PM41.0 °F35.6 °F81 %29.68 in6.2 miNNW (330°)3.5 mphScattered Clouds
7:20 PM37.4 °F35.6 °F93 %29.68 in6.2 miCalmScattered Clouds
7:50 PM37.4 °F33.8 °F87 %29.68 in6.2 miCalmScattered Clouds
8:00 PM37.0 °F34.0 °F85 %29.74 in6.0 miCalmPartly Cloudy
8:20 PM35.6 °F33.8 °F93 %29.68 in6.2 miVariable2.3 mphScattered Clouds
8:50 PM35.6 °F33.8 °F93 %29.68 in6.2 miNW (320°)4.6 mphScattered Clouds
9:20 PM37.4 °F35.6 °F93 %29.68 in6.2 miNorth (350°)5.8 mphScattered Clouds
9:50 PM37.4 °F35.6 °F93 %29.68 in3.7 miNorth (350°)4.6 mphScattered Clouds
10:20 PM37.4 °F35.6 °F93 %29.68 in3.7 miNorth (360°)4.6 mphScattered Clouds
10:50 PM37.4 °F35.6 °F93 %29.68 in3.7 miNorth (350°)3.5 mphScattered Clouds
11:20 PM35.6 °F33.8 °F93 %29.71 in3.7 miCalmScattered Clouds
11:50 PM37.4 °F35.6 °F93 %29.71 in3.7 miVariable1.2 mphScattered Clouds
Hourly data recorded from LTAJ, located miles away from Birecik, Turkey







STORIES FROM OUR PARTNERS